SHIYAN 30 02

Satellite information

Favourite Embed

Satellite Type and Status

PAYLOADIN ORBIT

Key statistics

Satellite SHIYAN 30 02 at a glance.

Uptime

24

Days in orbit

Revolutions

≈ 14.9

Per day

Orbit

LEO

Low Earth Orbit

Inclination

35.0

Latest

Satellite identification and parameters

Extended collection of information and parameters for SHIYAN 30 02.

Object identification

Identified? True

Debris? False

Object name: SHIYAN 30 02

International designator: 2025-222B

Object number (NORAD): 65852

Object ID (CCSDS): 65852

Country: PEOPLES REPUBLIC OF CHINA (PRC)

Current information (Y/N): Y

Orbital parameters

Period: 96.453 minutes

Inclination: 34.9972 deg

SMA: 6966.88 km

Apoapsis: 593.456 km

Periapsis: 584.034 km

RAAN: 245.8786 deg

Eccentricy: 0.00067619

Argument of periapsis: 181.7379 deg

Mean anomaly: 178.3304 deg

Mean motion: 14.92949979 rev/day

Mean motion (dot): 0.00004225 rev/day2

B* drag term: 0.00040156773 1/REarth

Two-line elements (TLE)

Creation date: Oct. 23, 2025, 2:46 a.m.

Reference frame: TEME

Reference center: EARTH

Epoch: Oct. 22, 2025, 9:53 p.m. UTC

TLE line 0: 0 SHIYAN 30 02

TLE line 1: 1 65852U 25222B 25295.91190161 .00004225 00000-0 40157-3 0 9993

TLE line 2: 2 65852 34.9972 245.8786 0006762 181.7379 178.3304 14.92949979 3540

Live tracking on map

Real-time ground track for satellite SHIYAN 30 02.

In-orbit conjunctions

There are no conjunctions computed for SHIYAN 30 02, at the moment. Check back to stay up to date, as we update our databases every day.

Go to all conjunctions

Associated space launch

A pair of Chinese satellites reported to be for "Earth observation technological testing and validation" purposes. Actual usage not known.

SHIYAN 30 02 was lifted into orbit during the mission ‘Long March 2D | Shiyan 30 01-02’, on board a Long March 2D space rocket.

The launch took place on Sept. 29, 2025, 3 a.m. from Launch Complex 3 (LC-3/LA-1).

For more information about the launch, click the button.

Launch to space Long March 2D | Shiyan 30 01-02
Long March 2D | Shiyan 30 01-02

Agency: N/A

Status: Launch Successful

Launch date: Sept. 29, 2025, 3 a.m. UTC

Rocket: Long March 2D

Launch pad: Launch Complex 3 (LC-3/LA-1)

Location: Xichang Satellite Launch Center, People's Republic of China

...

Latest news about this satellite

News about space launch
China sends experimental Shiyan-30 satellites into orbit as launch cadence intensifies

A Long March 2D rocket sent a new set of experimental satellites into orbit late Sunday, capping an intense month of Chinese launch activities. The post China sends experimental Shiyan-30 satellites into orbit as launch cadence intensifies appeared first...


Newsletter sign-up

Weekly statistics, charts and insights to help you stay on top of the space industry.